Location: Fuglau
(48.6333°N, 15.5500°E)
Time: 18:36:31
(UTC+00:00)

Cosmos 2034 Rocket - Pass Details

Date: 27 February 2020
Orbit: 958 x 1000 km, 82.9° (Epoch: 28 March)

Event Time Altitude Azimuth Distance (km) Brightness Sun altitude
Rises 18:26:27 0° 187° (S) 3,633 7.0 -18.7°
Reaches altitude 10° 18:28:56 10° 188° (S) 2,688 6.3 -19.1°
Maximum altitude 18:35:05 88° 277° (W) 967 3.9 -20.2°
Drops below altitude 10° 18:41:18 10° 9° (N) 2,705 6.3 -21.2°
Sets 18:43:48 0° 10° (N) 3,658 7.0 -21.6°
